Wind_Speed
20 21 24 26 25 24 23 25 25 24 19 15 13 10 8 7 7 8 8 9 9 10 10 11 11 12 13 13 13 14 14 15 15 16 17 18 18 19 19 19 18 18 18 17 16 14 14 13 12 12 12 12 12 12 11 10 9 7 5 4 4 4 3 3 2 2 1 1 1 2 2 2 3 4 4 5 5 6 7 8 8 7 7 6 5
21 22 24 26 25 24 23 25 26 24 19 14 12 9 7 6 6 7 7 8 8 9 9 10 11 11 12 12 12 13 14 14 15 16 17 17 18 19 19 18 18 18 17 16 15 14 14 13 13 12 11 11 12 12 12 11 10 8 6 5 4 4 3 3 2 2 2 2 2 2 2 3 4 4 5 5 6 7 8 8 8 7 6 5 5
22 23 24 25 25 23 23 24 26 24 18 13 11 9 6 5 5 6 7 8 8 8 9 10 10 11 12 12 12 12 13 14 14 15 16 17 18 19 19 18 18 18 17 16 15 14 14 14 13 12 11 11 11 12 12 12 11 9 7 5 4 3 3 3 3 2 2 2 2 3 3 4 4 5 6 6 7 8 8 9 8 7 5 5 5
24 24 24 25 24 22 22 24 25 24 17 12 10 8 6 5 5 6 6 7 8 8 9 9 10 11 11 11 11 12 12 12 13 14 15 16 18 19 19 18 18 18 16 15 14 14 14 14 13 12 12 11 11 11 12 12 11 9 7 6 5 4 3 3 3 3 3 3 3 4 4 5 6 6 7 7 7 8 9 9 8 6 6 5 5
25 24 24 23 23 21 22 24 25 22 15 11 10 8 6 5 6 6 6 7 7 8 9 9 10 10 11 11 11 11 11 11 12 12 14 15 17 18 18 18 18 19 17 14 13 14 14 14 13 13 12 11 11 11 11 11 11 10 8 7 5 4 4 3 3 3 3 3 4 4 5 6 6 7 7 8 8 9 9 9 7 6 6 6 5
25 24 23 22 22 21 23 24 23 19 13 10 9 8 7 6 6 7 7 7 7 8 8 9 9 10 10 10 10 10 10 10 10 11 13 15 16 17 17 18 19 19 18 15 12 13 14 14 13 13 12 12 11 11 11 10 10 10 9 7 6 5 4 4 4 4 4 4 4 5 6 7 8 8 8 8 8 8 8 8 7 7 7 6 6
25 24 22 21 21 21 23 24 21 16 12 10 9 8 7 7 7 7 7 7 8 8 8 9 9 10 10 10 10 9 9 9 9 10 12 14 16 17 17 18 19 19 19 16 13 12 13 14 14 13 13 12 12 11 11 10 10 10 9 8 7 6 5 5 4 4 5 5 6 6 7 8 9 9 9 9 9 8 8 7 7 7 7 6 6
25 23 21 21 21 21 24 22 17 14 11 10 9 8 7 7 7 8 8 8 8 8 8 9 9 10 10 10 9 9 8 8 9 10 12 14 16 17 17 17 18 19 19 18 14 12 13 13 13 13 13 13 12 12 11 10 9 9 9 9 8 7 7 6 6 6 6 6 7 8 9 9 10 10 10 9 8 8 7 7 7 7 7 7 7
24 22 21 21 21 22 23 20 14 12 11 10 9 8 8 8 8 8 8 8 8 9 9 9 9 11 11 10 9 8 8 8 8 9 11 13 16 17 18 17 18 18 19 19 16 13 13 13 12 12 13 13 12 12 12 11 9 9 9 9 8 8 8 8 8 8 8 8 9 10 10 10 10 10 10 9 8 8 7 7 7 7 7 7 8
24 22 21 21 22 24 23 18 14 12 11 10 10 9 8 8 8 8 9 9 9 10 10 10 10 11 11 10 9 8 7 8 8 9 11 13 15 17 18 18 18 18 18 18 18 15 14 13 12 11 12 12 12 12 12 11 10 9 9 9 9 9 8 9 9 10 10 10 10 10 10 10 10 10 10 9 8 8 8 7 8 8 8 8 9
23 22 22 22 24 24 22 17 14 12 11 10 10 9 9 8 9 9 9 10 10 11 11 11 11 12 12 11 9 7 7 8 8 9 11 13 15 17 18 18 18 18 18 18 18 17 15 14 13 11 11 11 11 11 11 11 11 10 9 9 9 9 9 9 9 10 11 11 11 10 10 10 10 10 9 9 9 9 9 8 8 9 9 10 10
24 23 23 23 25 24 20 16 13 12 11 10 10 10 9 9 9 9 10 11 11 12 12 12 12 12 12 11 9 7 7 8 8 9 11 12 14 16 18 18 18 18 18 18 18 18 17 15 14 13 11 10 11 11 11 11 11 10 10 10 10 10 10 9 9 9 10 10 10 10 9 9 9 9 9 8 9 9 9 9 9 10 10 11 11
25 24 25 25 26 24 19 15 12 11 10 10 10 9 9 9 10 10 11 12 12 12 13 13 13 13 12 11 9 7 7 8 9 10 10 12 14 15 17 18 18 18 18 18 18 19 18 17 16 14 12 11 11 11 11 10 10 11 11 10 10 10 10 10 9 9 9 9 9 10 10 9 9 9 9 9 9 9 9 9 9 10 10 11 12
26 26 26 26 26 23 18 14 11 10 10 10 9 9 9 9 10 11 12 12 13 13 13 13 13 12 12 11 9 8 8 8 9 10 10 12 14 15 17 18 18 18 18 18 19 19 18 18 17 16 14 12 12 12 12 12 11 11 11 11 11 11 10 10 10 9 9 8 8 9 10 10 9 9 9 9 9 9 9 9 10 10 11 11 12
27 27 27 27 25 21 16 13 11 10 9 9 8 8 9 10 10 11 12 13 13 13 13 13 13 12 12 11 10 9 9 9 10 10 11 12 14 16 17 18 18 17 17 18 19 19 19 18 18 17 15 14 13 13 13 12 12 12 12 12 12 12 11 11 11 10 10 9 9 9 10 10 10 10 10 9 9 9 9 9 10 11 12 12 12
28 28 28 27 24 18 14 12 11 10 9 8 8 8 9 10 11 11 12 13 14 13 13 13 13 12 12 11 11 10 10 11 11 11 12 13 15 17 18 18 18 16 16 17 19 20 20 19 18 17 16 15 14 15 14 13 13 13 13 13 13 13 13 12 12 11 11 10 10 9 10 11 11 11 11 11 10 10 10 10 10 11 12 12 12
30 29 28 26 21 16 13 12 11 9 8 8 8 8 9 10 10 11 12 13 13 13 13 13 13 12 12 12 11 11 11 12 12 12 13 14 16 17 18 18 16 15 15 17 19 20 20 20 19 18 17 16 15 15 15 14 14 14 14 14 14 13 14 13 13 12 12 11 11 10 10 11 12 12 12 11 11 11 11 11 11 11 12 12 12
31 29 28 25 19 15 13 12 11 9 8 7 6 6 7 8 9 10 11 12 13 13 13 14 13 13 13 12 12 12 13 13 13 14 15 16 16 17 17 17 15 13 13 16 18 19 20 20 20 19 18 17 16 15 15 15 15 15 16 16 15 14 14 14 14 13 13 13 12 11 11 12 12 12 13 12 12 12 12 12 12 12 12 12 13
31 29 27 22 17 14 13 12 11 8 6 5 4 5 6 7 8 9 11 12 12 13 13 14 14 14 13 13 12 13 15 15 15 15 15 16 16 17 16 15 13 12 13 15 17 19 19 20 20 19 18 17 16 15 15 16 16 17 17 17 17 16 15 15 15 14 14 13 13 13 13 13 13 13 13 13 13 13 13 13 12 12 13 13 14
31 28 24 19 15 14 14 14 10 8 6 5 4 5 6 7 8 9 10 11 12 13 14 14 14 14 14 13 14 15 16 16 17 16 16 16 17 17 15 13 11 11 12 14 16 18 19 19 19 19 19 17 16 15 15 17 18 18 18 18 17 17 16 15 15 15 15 14 14 14 14 14 14 14 14 14 14 14 14 14 14 13 13 14 15
30 26 21 17 15 15 15 14 10 9 8 6 5 6 6 7 8 9 10 11 12 13 14 14 14 14 13 14 15 15 16 17 17 17 17 17 17 16 13 11 10 11 12 14 15 17 18 18 19 19 19 18 16 15 15 16 18 20 20 19 18 17 16 16 16 16 16 15 15 14 15 14 14 14 14 14 14 14 14 14 14 14 14 14 15
26 22 19 16 16 16 15 13 11 11 9 7 7 7 7 7 8 9 10 12 12 13 14 14 14 13 13 14 14 15 16 17 17 18 17 17 16 14 11 10 10 11 12 13 15 16 17 18 18 19 19 18 18 18 17 17 18 19 20 20 18 17 17 17 17 17 17 16 16 16 16 15 15 14 14 15 14 14 14 14 14 14 14 14 14
22 20 18 16 17 17 15 13 14 14 11 9 8 8 7 8 8 9 11 11 12 12 13 13 13 13 13 14 14 15 16 16 17 17 17 17 16 13 10 10 11 12 12 13 14 16 17 17 18 18 19 19 20 21 20 19 19 19 20 20 18 17 17 18 18 18 18 17 17 17 17 16 15 15 15 15 15 14 14 13 13 14 14 13 13
19 19 17 16 17 16 16 15 16 15 12 10 9 8 7 7 8 9 10 10 10 11 11 12 12 12 13 14 14 15 16 16 16 16 16 16 15 12 11 11 12 12 13 13 14 16 17 17 17 17 18 19 21 22 22 21 19 18 19 20 19 18 17 17 18 18 19 19 18 17 17 17 16 15 15 15 15 15 14 14 13 14 14 14 14
18 17 16 17 17 17 17 17 17 15 12 11 10 8 7 6 7 8 9 9 9 10 10 11 11 12 13 13 14 15 16 16 16 16 16 15 14 13 12 13 13 13 14 14 15 16 16 16 16 16 17 18 20 22 22 21 20 18 18 19 20 19 17 16 17 18 18 19 19 19 18 17 16 15 15 15 15 15 15 14 14 14 14 14 14
18 17 17 18 18 18 18 17 17 15 13 11 10 9 7 6 6 7 7 8 9 10 10 10 11 11 12 13 14 14 15 15 15 15 15 15 14 13 14 14 14 15 15 16 16 16 15 14 14 15 15 16 18 20 21 21 20 19 18 18 20 20 19 18 17 17 18 19 20 20 19 18 16 16 15 15 15 15 15 15 14 14 14 15 15
17 16 18 19 19 19 18 18 17 16 14 12 11 9 7 6 5 6 7 8 9 10 10 10 10 11 11 12 13 13 14 14 15 15 15 15 14 14 14 15 16 17 17 17 16 16 15 14 14 14 14 15 16 18 20 20 20 20 18 18 19 21 22 21 19 18 18 19 19 19 20 19 17 16 15 15 15 15 15 15 15 14 14 14 15
16 16 18 20 20 20 20 19 18 16 15 13 11 9 7 6 5 5 6 7 9 10 10 10 10 11 11 12 12 13 13 13 14 14 14 14 14 15 15 16 17 18 18 17 17 16 15 13 13 13 13 14 15 16 18 19 20 20 20 19 19 20 22 23 22 20 18 19 20 19 19 20 18 17 16 15 15 15 16 15 15 14 14 14 15
16 17 19 21 21 21 21 20 19 17 15 13 12 10 8 7 6 6 7 8 9 10 11 11 11 11 11 11 11 12 12 12 13 13 13 14 14 15 15 16 16 17 18 18 17 16 14 13 13 13 13 13 13 14 16 17 19 21 21 21 20 19 20 23 24 23 21 20 20 20 19 19 19 18 17 16 15 15 15 16 15 14 14 14 14
16 18 20 21 22 22 21 20 19 17 15 14 13 11 10 9 8 7 7 8 9 10 11 11 12 12 12 11 11 11 11 11 12 12 12 13 14 14 15 15 16 16 17 16 16 15 14 13 13 13 12 12 12 13 14 16 18 20 22 21 20 20 20 21 24 25 24 22 22 21 20 19 20 19 18 17 16 15 16 16 15 15 14 14 14
17 19 21 22 22 22 21 19 18 16 15 14 13 12 11 10 9 8 8 8 9 10 11 11 12 12 12 11 11 11 11 11 11 12 12 12 13 13 14 14 14 15 15 14 14 14 13 13 14 13 13 13 13 14 14 16 18 19 21 21 21 20 20 21 23 25 25 24 23 22 21 20 19 19 18 17 17 16 16 16 16 15 15 15 14
19 20 22 22 22 21 20 19 18 17 16 15 14 13 12 11 10 9 9 9 9 10 11 11 11 11 11 11 11 11 10 11 12 12 12 13 12 12 12 12 13 14 14 14 14 14 14 14 14 14 15 15 15 15 15 16 17 18 20 21 21 21 20 21 22 24 26 25 24 24 23 21 20 19 19 18 18 17 16 16 16 16 15 15 14
20 21 22 22 22 21 20 19 18 17 17 16 15 14 13 12 11 11 11 10 10 10 10 10 11 11 11 11 10 10 11 11 12 13 13 13 12 11 10 11 12 14 15 15 14 14 14 14 14 15 15 16 16 16 16 15 15 17 18 20 21 21 20 21 21 23 25 25 25 25 24 23 20 19 20 19 18 18 17 16 15 16 16 15 15
21 22 23 22 22 21 20 19 19 18 18 17 16 15 14 13 13 12 12 11 11 11 11 10 10 10 11 11 10 11 12 12 13 13 13 13 12 11 10 10 12 15 16 15 15 15 15 15 15 15 15 16 16 15 16 16 16 16 17 18 19 20 20 20 21 22 24 25 25 25 25 24 22 20 20 20 19 19 17 17 16 16 16 16 15
22 23 23 22 22 21 20 20 19 19 18 17 16 15 14 14 14 13 13 12 12 11 11 10 10 11 11 11 11 11 12 13 13 13 13 13 13 12 11 11 13 15 16 16 15 15 15 15 15 15 15 16 15 15 15 15 16 16 16 17 18 19 20 20 21 21 22 23 25 25 24 24 23 21 20 20 20 20 19 18 18 17 16 16 16
21 22 22 22 22 22 21 20 19 18 18 17 16 16 15 15 15 14 13 13 12 12 12 11 11 11 11 11 12 12 12 13 13 13 13 13 13 13 12 13 14 16 16 16 16 15 15 15 15 15 15 16 16 16 16 15 15 16 16 17 18 19 20 20 20 20 20 21 23 23 23 21 21 20 19 20 21 21 20 19 20 19 18 17 16
21 20 21 23 23 22 21 20 19 18 18 17 17 16 16 16 15 15 14 13 13 13 13 12 12 12 11 11 12 12 12 12 13 13 14 14 14 14 14 15 16 17 17 17 16 15 15 14 14 14 15 16 17 17 17 17 17 16 16 17 18 18 19 20 20 20 20 20 21 22 22 20 19 19 18 19 21 21 21 21 21 21 20 19 17
22 20 20 22 23 21 20 20 18 18 18 18 18 17 17 17 16 15 14 14 14 14 13 13 13 12 12 12 12 12 12 12 13 13 14 14 15 15 15 16 16 16 17 17 16 15 15 14 14 15 16 17 17 18 18 18 17 17 17 17 17 18 19 20 20 20 20 20 20 21 22 21 20 20 19 19 20 21 22 22 22 22 22 21 19
22 20 20 21 21 21 20 19 18 18 18 18 18 18 18 17 16 16 16 15 15 14 14 14 13 13 12 12 13 13 12 12 13 14 14 14 15 16 16 16 16 17 17 16 15 15 14 14 15 15 16 16 17 17 17 17 17 17 18 18 17 18 19 19 20 21 21 20 21 21 22 22 22 22 22 20 20 22 23 24 24 23 24 24 22
23 20 20 20 20 20 20 19 19 19 19 19 19 19 18 18 17 17 16 16 15 15 15 14 14 13 13 13 13 13 13 13 14 14 15 15 16 16 17 17 18 18 17 16 15 14 14 14 15 15 16 16 16 16 16 16 17 17 18 18 18 18 19 19 20 21 21 21 21 22 22 23 23 23 24 22 21 22 24 25 26 26 25 25 25
24 21 20 20 20 20 20 20 20 19 19 19 19 19 19 18 18 17 17 16 16 16 16 15 14 13 13 13 13 14 14 14 15 15 16 16 16 17 18 18 18 18 17 15 15 14 14 14 15 16 16 16 17 17 17 17 17 17 18 18 18 18 19 20 20 21 21 21 21 21 22 24 24 24 25 25 24 24 24 25 27 28 28 27 27
25 22 21 21 20 20 20 20 20 19 19 19 19 20 19 19 18 18 17 17 17 17 17 16 15 14 14 14 14 15 16 16 15 15 16 16 16 17 17 17 17 17 16 15 14 13 13 14 15 16 17 17 18 18 18 18 17 17 18 18 18 19 19 20 20 21 21 21 21 21 22 23 25 25 26 26 26 26 26 26 26 28 29 29 28
26 24 22 21 20 20 19 19 19 19 20 20 20 20 20 19 19 18 18 18 17 17 17 16 16 15 15 15 15 16 16 17 16 16 16 16 16 16 16 17 17 17 17 15 14 13 13 14 15 16 17 18 19 19 19 18 18 18 18 18 19 20 20 20 20 21 21 21 21 21 21 22 24 25 26 27 27 28 27 28 28 28 29 30 29
25 24 24 23 22 21 20 19 19 19 20 21 21 21 20 20 20 19 19 18 18 17 17 16 16 16 16 16 16 17 17 17 16 16 16 16 16 16 16 17 18 18 17 16 14 13 13 14 15 16 17 18 20 20 20 19 19 18 18 18 19 20 21 22 22 22 22 22 21 21 21 21 22 24 25 26 27 28 28 29 29 29 29 30 30
23 24 24 25 24 22 21 20 20 21 21 22 22 22 21 21 21 20 19 18 18 18 17 17 17 17 17 17 18 18 17 17 16 16 16 16 16 16 17 17 18 18 17 16 15 14 14 14 15 17 18 19 20 21 21 21 20 19 19 19 18 19 21 22 23 24 24 23 23 23 22 21 20 21 24 26 27 28 28 29 29 30 30 29 29
26 25 25 28 27 24 23 22 22 23 23 23 23 22 21 22 21 20 19 19 18 18 18 18 18 18 18 19 19 19 18 17 17 16 16 16 16 16 17 17 18 18 18 17 16 15 15 15 16 17 18 19 20 21 22 22 21 20 19 19 19 19 20 21 22 23 25 25 25 25 25 24 23 22 22 25 27 28 28 29 29 30 31 30 29
27 26 27 29 29 28 26 25 25 24 24 24 24 22 21 21 21 20 20 19 19 19 19 19 19 19 20 20 21 20 19 19 18 17 16 16 16 17 17 17 18 18 18 18 17 17 17 17 17 17 19 19 20 21 21 22 22 21 21 20 20 20 21 22 23 23 24 25 26 27 27 26 26 26 25 24 26 28 28 28 29 30 31 31 31
25 25 28 29 29 29 27 26 25 24 24 24 23 22 22 22 21 21 20 20 20 19 19 19 20 20 21 21 21 21 20 19 18 17 16 16 17 17 17 17 18 18 18 18 18 19 19 19 19 19 19 20 21 21 21 21 21 21 21 21 21 21 22 23 24 24 24 25 26 28 28 28 27 28 28 27 27 28 28 29 29 30 31 32 33
25 25 27 27 28 28 26 26 25 24 24 23 23 22 22 21 21 20 20 20 20 20 20 20 20 21 21 21 21 21 20 20 19 18 18 18 18 18 18 18 18 19 19 19 20 20 21 21 21 21 21 22 22 22 22 22 22 22 22 22 22 22 22 23 24 25 26 26 26 27 29 29 28 28 28 28 28 29 29 29 29 30 30 31 33
25 25 27 27 27 27 26 26 26 25 24 23 23 22 21 20 20 20 20 20 20 20 20 20 20 21 21 21 21 20 20 20 20 20 19 19 19 19 19 20 20 20 20 21 21 22 22 23 23 23 23 23 23 23 24 24 24 24 24 24 23 23 23 24 25 26 26 27 26 27 28 29 29 30 30 29 29 30 31 30 29 30 30 31 32
25 26 27 27 27 26 26 26 26 25 24 24 23 22 21 20 20 21 20 21 21 20 20 20 20 20 20 20 20 20 20 20 20 20 20 20 20 21 21 21 21 21 22 22 23 23 24 24 25 25 25 25 25 25 25 26 25 25 25 25 25 25 25 25 26 26 26 27 27 27 28 29 28 30 31 30 29 30 31 31 30 29 30 30 32
Wind_Direction
323 324 324 325 328 332 336 341 347 352 350 349 355 359 360 356 355 354 353 353 357 359 356 355 357 359 2 3 3 3 2 3 5 7 9 9 9 6 3 2 3 4 2 0 358 358 359 359 2 4 7 10 11 9 8 8 7 6 7 2 359 356 352 343 332 318 298 271 252 234 234 248 261 273 287 302 312 317 321 323 324 327 328 326 321
319 320 320 320 325 329 332 338 343 347 346 344 349 353 354 346 344 344 346 347 352 355 352 352 353 356 358 359 360 360 0 2 6 7 8 8 7 3 1 360 3 4 2 1 1 359 359 359 359 2 4 6 8 7 6 6 6 4 5 1 358 353 344 334 321 311 299 280 263 250 248 259 272 284 297 307 312 318 322 322 323 324 323 319 312
314 315 316 318 322 326 329 335 339 342 341 337 341 346 344 332 328 331 336 340 346 350 348 349 350 351 353 354 356 358 1 3 6 7 6 6 5 2 0 359 2 3 1 2 3 1 360 360 358 359 360 1 4 5 4 5 5 2 360 357 352 349 341 333 324 318 311 300 287 281 278 278 284 292 300 306 312 317 321 322 322 321 316 310 305
310 311 313 316 320 324 327 332 335 337 335 330 333 337 332 317 312 316 324 331 339 345 346 347 346 345 347 349 353 357 2 4 7 7 6 4 3 3 0 358 0 1 359 360 4 2 1 1 359 358 356 357 359 0 1 2 3 1 357 352 346 340 335 331 326 320 312 307 301 296 294 292 295 298 302 305 311 316 319 321 320 315 306 300 299
306 308 311 314 318 322 324 328 329 331 328 321 323 327 322 305 299 303 312 322 333 340 342 343 340 339 340 343 348 356 1 5 8 7 6 3 1 3 1 359 359 359 357 356 1 2 1 2 0 358 355 353 353 353 355 358 0 360 355 348 341 334 327 325 322 318 312 307 304 299 297 297 297 297 299 301 307 314 319 321 317 309 300 296 298
302 304 309 313 316 318 321 323 324 325 320 312 314 318 313 297 291 295 303 315 326 334 337 337 335 333 333 336 344 354 0 4 6 7 5 1 359 1 2 1 359 358 357 355 357 360 359 1 0 358 355 351 348 346 349 353 357 357 354 345 337 328 319 316 312 310 308 307 305 302 298 295 293 292 293 297 303 310 316 318 312 304 297 297 302
298 302 307 310 312 314 317 318 318 316 310 304 306 309 306 293 288 290 298 307 316 325 328 329 328 326 326 329 341 352 358 0 2 6 2 359 358 359 2 3 1 358 358 357 354 356 357 357 358 357 355 351 347 344 344 347 353 354 352 345 335 324 313 306 303 302 303 304 302 302 299 294 292 290 290 292 297 304 309 308 303 297 294 299 304
295 299 305 308 309 312 315 315 311 307 302 298 300 302 299 292 288 288 294 300 308 315 317 320 321 319 320 325 337 349 353 355 357 2 359 357 357 358 1 3 2 359 359 359 355 352 353 355 357 356 355 352 349 346 342 342 346 349 350 344 333 322 310 303 297 296 297 297 300 302 302 300 296 293 291 290 292 297 300 296 294 291 291 299 303
293 298 304 306 308 312 315 311 303 300 297 293 294 295 295 292 289 288 291 297 301 304 306 312 314 313 315 320 331 342 346 347 351 355 355 356 356 357 0 1 1 359 358 359 356 350 348 351 354 355 354 352 350 348 343 338 338 343 346 344 334 322 309 300 295 293 293 294 299 303 305 305 303 300 296 293 292 293 291 288 289 288 290 297 301
292 298 302 303 307 312 312 306 297 294 292 289 289 291 292 291 289 289 292 295 295 296 299 305 308 308 311 315 324 335 337 338 342 346 350 353 354 355 358 358 358 358 356 356 355 350 344 343 349 353 353 352 351 349 346 339 333 333 338 340 337 327 312 299 293 291 291 293 297 301 305 308 307 305 303 298 296 294 289 286 289 290 292 296 301
291 296 299 301 306 311 308 300 293 289 286 285 286 289 292 294 293 291 291 291 291 293 296 301 303 304 307 311 318 326 327 330 333 339 346 350 352 354 355 355 355 355 355 354 352 350 345 339 340 346 349 350 350 349 347 340 333 328 328 332 335 332 321 307 295 290 289 291 293 295 300 305 307 306 305 303 301 300 295 292 296 297 296 297 301
289 294 296 299 305 309 303 294 288 284 281 282 286 292 299 301 296 291 289 289 291 294 295 297 300 300 302 305 311 315 318 322 327 333 341 345 348 351 351 351 351 351 352 352 351 349 347 342 336 336 340 345 347 347 344 339 332 324 321 323 328 330 326 318 304 293 289 290 290 289 290 296 301 302 302 302 303 303 299 297 300 301 299 298 301
288 293 296 300 304 306 298 288 283 281 279 281 289 299 306 303 295 289 287 288 291 293 293 294 296 296 297 300 303 306 309 315 322 328 335 341 343 346 347 347 347 347 348 349 349 347 346 344 338 332 331 335 341 342 340 336 329 322 317 316 319 323 325 323 314 300 290 288 289 286 285 288 293 296 296 297 299 301 298 295 297 299 297 297 299
287 292 296 299 303 303 292 281 275 274 275 282 293 301 303 298 292 288 286 288 289 290 290 291 292 293 293 295 297 299 303 310 316 322 329 336 337 341 343 344 344 343 344 346 346 345 343 342 339 335 328 326 332 336 337 335 330 322 316 313 312 314 319 322 319 309 295 287 286 286 286 287 291 291 290 290 292 296 295 293 293 294 295 297 300
285 290 295 298 301 298 286 272 264 266 271 280 291 294 296 293 290 287 286 286 286 287 288 288 289 290 289 291 293 296 300 306 311 317 325 331 334 336 339 340 341 340 341 344 345 343 342 340 337 335 331 325 325 330 333 333 330 325 319 314 310 309 313 317 320 315 304 292 287 286 287 288 291 291 290 289 288 289 289 289 289 291 295 299 302
283 288 293 296 298 291 275 259 254 259 265 273 282 286 289 288 288 287 286 285 284 284 284 285 286 285 286 288 291 295 299 304 308 314 322 327 330 332 335 337 337 337 337 342 344 343 341 340 337 333 330 326 323 324 326 328 328 326 322 317 311 307 307 310 315 316 310 300 292 290 291 291 291 291 292 294 293 291 287 284 282 286 292 299 303
282 287 292 294 292 279 261 249 248 252 256 267 274 280 283 285 287 287 287 286 285 284 282 283 283 283 285 288 292 295 298 302 307 314 320 324 326 329 331 332 333 334 335 340 343 343 341 340 338 333 329 326 323 321 321 323 325 326 325 320 313 307 304 304 307 312 312 306 298 293 293 292 291 291 293 295 296 295 292 288 285 285 288 295 301
282 287 291 292 284 265 249 241 241 244 251 258 264 271 278 284 288 289 290 290 289 286 283 282 282 283 285 289 293 295 298 303 307 312 317 320 322 325 328 329 330 332 335 340 343 343 341 339 337 333 330 328 327 325 323 323 324 326 326 323 316 308 302 300 302 305 308 308 302 296 293 292 291 292 293 295 298 297 294 291 290 289 289 293 298
283 287 289 286 271 250 238 234 232 234 234 230 240 260 273 283 288 290 291 291 291 289 285 284 283 284 287 291 293 295 300 304 307 310 313 314 318 322 326 328 329 331 335 340 342 341 340 339 336 333 331 331 332 332 330 327 324 324 325 323 317 310 303 298 297 298 302 305 304 299 294 293 293 292 292 294 297 298 297 294 291 290 291 293 297
283 286 285 275 255 237 230 228 223 216 205 204 231 252 265 276 284 289 290 289 289 288 286 285 284 285 288 291 293 297 303 306 307 309 309 311 316 320 323 326 328 331 334 338 339 339 338 337 334 332 330 331 334 336 335 330 326 325 325 324 317 309 303 298 295 293 294 298 301 300 294 292 292 292 291 291 293 295 296 295 292 291 291 293 297
281 281 276 260 240 229 225 222 212 202 200 213 237 248 260 271 281 287 288 287 286 286 287 287 287 289 290 292 296 303 307 307 307 308 309 312 316 319 320 322 326 327 330 334 336 336 336 335 331 329 328 328 332 336 336 332 326 325 326 327 320 309 304 299 293 290 289 291 295 296 293 290 289 289 289 289 289 290 292 292 291 290 290 292 296
276 273 263 244 229 224 222 217 206 204 211 227 241 246 256 268 280 286 286 286 286 289 291 293 296 296 296 299 304 307 306 306 307 309 312 316 317 317 315 316 321 322 325 330 333 333 334 333 329 324 322 322 325 329 332 330 326 324 324 326 322 310 304 299 293 288 285 284 286 289 291 290 288 288 287 287 288 288 289 290 290 289 290 291 293
268 262 251 234 222 220 218 213 208 211 220 232 239 243 253 269 281 285 286 287 291 296 298 301 304 302 301 304 307 306 306 307 309 312 316 318 318 315 310 310 316 318 321 326 330 331 331 331 328 321 316 315 317 321 325 326 325 324 324 324 322 311 300 295 292 287 284 281 280 283 287 289 289 287 286 286 287 287 288 288 288 288 289 291 291
260 254 243 228 219 218 217 214 213 216 222 230 233 238 253 271 283 287 289 293 301 306 305 305 305 303 304 306 307 308 309 311 313 316 319 319 317 313 306 306 310 314 317 323 327 329 328 327 326 320 313 310 312 315 319 323 323 324 325 323 322 316 302 293 289 286 283 281 279 279 282 287 289 288 287 287 286 286 286 287 286 285 287 289 289
253 247 234 222 218 219 219 217 217 218 222 227 228 236 253 271 283 290 294 301 311 312 309 309 307 305 306 307 309 311 313 315 316 318 320 319 316 311 305 304 308 311 314 320 325 327 325 324 324 321 314 310 311 313 316 319 320 322 326 325 322 319 311 301 293 288 284 282 280 278 278 283 288 289 288 287 287 285 284 285 284 284 285 287 287
247 237 223 218 219 220 220 218 218 219 224 227 226 234 251 269 283 293 301 308 311 311 310 310 308 307 307 309 312 314 314 315 316 317 318 317 314 309 307 307 309 311 314 319 322 324 324 324 324 322 317 313 311 312 313 314 316 319 324 326 324 321 315 307 300 295 289 284 281 279 278 279 283 287 287 286 285 284 282 282 281 280 282 284 285
239 228 217 217 220 222 220 219 221 223 226 226 224 231 246 263 282 296 303 308 310 311 312 311 309 308 309 311 313 313 314 314 315 315 314 314 312 310 310 311 312 313 314 317 320 324 326 326 326 323 318 313 311 310 311 311 312 315 320 324 325 322 318 311 304 299 296 291 285 281 279 278 279 282 284 282 281 281 280 279 278 278 279 281 283
230 221 216 217 220 222 222 223 224 226 228 224 222 227 239 254 275 291 301 311 316 318 316 314 310 307 307 309 309 309 311 312 312 311 311 311 311 312 313 313 313 312 313 316 319 323 327 328 327 324 317 312 310 310 311 310 310 312 316 319 321 321 318 315 310 303 297 292 289 284 280 278 277 279 281 281 278 278 277 275 275 276 276 277 280
222 217 215 217 220 221 223 224 224 226 227 222 221 226 237 249 265 279 296 314 321 321 318 314 309 306 306 307 307 307 309 309 308 308 309 310 311 312 312 312 313 312 314 316 317 321 325 327 326 323 318 313 313 312 312 310 310 311 312 315 317 316 315 314 312 308 302 295 291 288 283 278 276 276 280 281 278 275 275 273 272 272 272 273 275
218 215 214 216 219 221 223 222 222 225 224 220 222 228 235 246 258 271 291 310 317 319 319 316 312 309 306 306 306 306 307 305 305 308 310 311 311 312 311 312 314 315 316 317 318 322 325 324 323 322 319 318 318 317 314 311 311 311 312 313 313 313 313 312 311 310 308 302 296 293 287 280 275 275 278 281 279 275 275 275 273 270 270 272 274
216 214 214 216 219 222 223 221 220 222 221 220 223 229 236 244 254 268 286 300 310 318 322 320 316 312 308 307 306 306 307 306 307 309 310 311 311 310 311 314 318 320 321 323 323 324 323 322 321 321 320 320 320 319 315 313 312 312 313 313 312 312 311 311 311 311 310 306 300 296 292 287 278 273 275 279 279 275 273 273 273 271 269 270 272
216 214 213 215 219 222 222 220 219 220 220 220 224 230 237 245 254 267 280 292 306 317 321 321 318 314 310 307 306 306 307 308 308 310 311 311 310 309 310 316 322 324 324 325 324 322 321 321 321 320 320 319 319 317 315 313 313 312 312 314 314 313 311 311 311 311 311 309 304 299 294 291 282 271 270 274 277 274 271 271 271 269 267 266 269
217 214 213 214 217 219 221 219 218 219 218 220 224 230 236 244 253 262 274 287 300 312 317 317 316 313 308 305 304 305 306 308 309 310 311 310 308 305 307 317 325 327 325 322 321 320 319 320 320 320 318 318 319 317 316 316 316 313 311 312 313 314 313 312 312 311 309 308 306 302 296 293 287 274 265 268 272 272 270 270 271 269 266 264 265
216 216 214 214 215 217 220 220 218 217 217 220 224 229 235 242 251 259 269 281 293 305 311 312 312 307 303 301 301 303 306 309 310 311 310 308 305 301 301 314 324 327 325 321 318 317 319 320 321 321 319 319 321 320 319 319 320 317 313 311 311 311 312 312 311 310 309 307 306 303 298 296 295 283 268 264 267 269 267 267 271 271 269 266 265
216 218 217 215 215 217 219 220 218 217 217 220 223 229 235 242 249 257 265 276 288 298 303 305 304 299 298 298 300 304 306 309 311 310 309 306 302 296 295 304 315 321 321 319 316 315 318 320 321 322 321 322 323 323 322 321 320 318 316 313 312 311 311 312 311 310 309 307 307 305 302 300 299 293 276 264 264 266 266 266 268 271 270 269 267
215 216 215 214 215 216 218 219 217 217 218 220 224 230 236 241 247 255 262 273 283 290 295 296 295 295 295 297 299 303 307 310 311 310 307 305 301 295 292 294 303 311 315 315 313 313 315 317 320 322 323 324 324 324 322 320 317 315 314 313 312 312 311 311 310 309 308 307 307 307 306 303 302 299 283 267 264 266 268 267 267 269 270 269 269
210 210 210 211 213 214 216 216 216 216 218 222 226 231 236 241 246 253 260 269 277 282 288 291 292 293 293 294 296 302 308 311 310 308 305 304 301 297 292 291 297 304 309 311 310 311 312 314 318 321 322 323 322 322 321 319 317 315 313 312 311 310 309 309 309 309 308 306 306 306 306 305 303 302 291 273 266 267 270 270 269 268 268 268 269
206 205 206 209 211 212 213 215 216 218 221 226 229 233 237 242 246 252 258 265 271 276 283 289 291 293 292 294 298 303 309 309 307 305 303 302 299 296 293 292 295 300 304 306 306 307 309 312 316 319 320 321 320 320 320 320 320 318 317 315 314 312 310 309 309 310 310 308 306 304 303 301 300 300 297 285 273 268 269 270 270 268 267 266 268
204 202 206 209 211 211 213 215 218 221 225 229 232 235 240 244 247 251 256 261 267 274 280 286 288 289 290 294 299 304 306 306 304 302 301 299 296 294 293 293 295 298 301 301 301 304 308 312 315 318 319 319 319 320 320 321 321 321 320 319 319 317 314 311 310 311 311 309 307 304 301 299 296 295 295 292 283 274 268 267 268 269 268 266 267
203 200 204 208 211 211 213 216 219 221 225 229 234 237 242 245 247 249 254 261 267 273 277 282 287 289 291 294 298 302 303 303 303 302 301 299 296 294 292 292 293 296 297 297 298 302 306 311 315 317 318 318 319 320 321 321 322 321 320 320 320 319 316 314 313 311 310 309 307 304 302 299 295 292 291 292 289 281 273 268 267 267 268 269 268
207 200 203 207 209 210 212 215 217 220 223 228 234 238 242 244 245 248 253 260 266 271 276 282 288 291 292 295 298 300 301 302 302 302 301 299 296 293 291 291 291 293 294 294 296 299 305 309 313 315 317 319 320 321 321 321 321 319 317 317 319 318 317 317 316 313 310 307 305 303 302 300 297 293 290 289 288 285 281 276 271 268 266 267 268
209 204 204 205 206 208 210 214 216 219 223 228 233 237 240 240 243 247 252 258 263 268 275 282 289 292 294 297 300 301 301 302 303 301 299 297 294 292 290 289 290 290 290 291 292 296 302 306 310 314 316 319 321 321 321 320 319 317 317 317 318 319 319 320 319 317 314 311 308 305 302 300 299 297 294 290 288 285 283 281 278 275 270 266 265
207 203 202 203 203 204 207 211 215 219 223 228 231 234 237 238 240 245 250 255 261 267 274 282 288 292 296 299 300 301 302 303 302 301 299 296 294 292 290 289 289 289 289 289 289 293 298 303 307 312 316 319 321 321 321 321 319 317 316 317 319 320 321 322 321 320 319 317 315 312 307 303 300 300 298 295 291 287 284 282 281 280 277 270 263
208 203 201 201 201 203 205 209 214 219 223 227 229 232 234 236 238 243 248 254 260 267 273 280 286 291 295 298 299 299 300 301 301 300 299 295 293 292 290 289 288 288 287 286 286 290 295 300 306 310 315 318 320 322 322 321 319 317 316 317 319 320 322 323 323 322 322 322 321 319 315 311 306 302 300 298 295 291 287 284 281 280 281 277 267
222 210 204 202 205 208 209 211 214 218 222 225 228 230 232 234 237 243 249 255 260 266 271 277 283 288 293 295 296 297 299 301 301 301 299 295 292 290 289 288 287 285 283 282 283 286 291 296 302 308 312 316 319 321 322 321 319 317 315 315 317 319 320 321 321 322 323 324 324 322 321 320 315 308 301 298 296 294 290 287 283 280 280 281 274
229 214 207 207 210 216 217 217 218 219 223 226 228 231 233 234 238 244 249 255 260 263 268 273 279 284 288 291 293 295 299 302 303 303 299 295 291 289 288 287 285 284 282 282 282 285 288 293 299 306 310 313 316 319 320 321 319 317 314 313 314 315 316 317 317 320 321 323 323 321 321 322 321 316 308 301 297 295 293 289 285 281 278 279 279
221 210 208 210 213 218 221 221 222 223 226 228 229 232 234 235 239 244 249 254 258 261 264 268 274 280 283 287 290 295 300 303 305 304 300 295 291 290 289 288 286 284 283 282 282 285 288 291 296 302 307 309 311 313 317 319 318 317 315 314 314 314 314 313 313 315 317 319 319 318 318 318 318 317 313 308 302 297 293 290 286 282 279 277 277
219 211 209 212 214 219 223 223 225 228 229 230 231 233 235 237 240 244 249 253 257 259 262 266 272 277 280 283 289 294 299 303 304 303 300 296 293 292 292 291 289 286 284 283 283 285 287 290 295 300 304 306 307 307 309 312 314 314 314 313 314 314 313 312 312 313 314 315 315 314 314 314 313 312 313 312 308 302 296 291 287 284 281 277 274
226 216 211 214 216 220 224 224 226 230 231 232 233 234 236 238 242 247 251 254 257 258 262 267 271 275 279 283 287 292 296 300 302 302 301 299 296 296 295 295 293 290 288 286 285 286 287 290 294 297 300 303 304 303 303 305 307 308 310 310 311 312 312 312 311 311 311 312 312 312 311 311 311 309 309 310 310 308 302 295 290 285 281 278 274
228 217 213 215 217 221 225 226 228 231 231 232 233 234 237 241 244 248 252 254 256 259 262 266 270 274 278 282 285 289 293 297 300 302 302 301 299 298 297 296 295 294 292 291 290 290 290 291 293 295 297 299 300 300 299 299 300 303 304 306 307 309 310 310 310 309 310 311 310 309 308 309 311 309 307 307 309 309 305 300 293 287 282 277 274
223 217 216 217 219 222 225 228 229 230 230 231 232 234 237 241 244 247 250 253 256 259 263 267 270 273 276 280 283 288 292 296 299 301 302 302 302 300 299 297 296 296 295 294 293 292 292 292 292 294 296 297 298 297 296 295 295 297 299 301 303 305 306 307 308 309 310 309 309 308 306 307 309 309 308 308 309 308 306 304 298 289 282 277 273
Height
5895 5894 5893 5892 5891 5889 5888 5887 5887 5887 5886 5885 5883 5882 5882 5881 5881 5881 5880 5879 5879 5878 5878 5877 5877 5876 5875 5874 5873 5873 5872 5871 5870 5868 5867 5866 5864 5863 5862 5861 5859 5858 5857 5856 5855 5854 5854 5853 5852 5852 5851 5851 5850 5849 5848 5848 5847 5846 5846 5845 5845 5845 5844 5844 5844 5844 5844 5844 5844 5844 5844 5844 5844 5844 5844 5843 5843 5842 5842 5841 5841 5840 5840 5839 5839
5894 5894 5893 5891 5890 5889 5888 5887 5887 5887 5886 5885 5883 5882 5881 5881 5881 5880 5880 5879 5879 5878 5878 5877 5877 5876 5875 5874 5874 5873 5872 5871 5869 5868 5867 5865 5864 5863 5862 5861 5859 5858 5857 5856 5855 5854 5854 5853 5852 5852 5851 5851 5850 5849 5849 5848 5847 5846 5846 5845 5845 5845 5845 5844 5844 5844 5844 5844 5844 5844 5844 5844 5844 5844 5843 5843 5843 5842 5842 5841 5840 5840 5839 5839 5839
5894 5893 5892 5891 5890 5889 5888 5887 5887 5886 5885 5884 5883 5882 5881 5881 5880 5880 5880 5879 5879 5878 5878 5877 5877 5876 5875 5874 5873 5873 5872 5870 5869 5868 5867 5865 5864 5863 5862 5861 5859 5858 5857 5856 5855 5854 5854 5853 5852 5852 5851 5851 5850 5849 5849 5848 5847 5847 5846 5846 5846 5845 5845 5845 5844 5844 5844 5844 5844 5844 5844 5844 5844 5843 5843 5843 5843 5842 5841 5841 5840 5840 5839 5839 5838
5893 5893 5892 5890 5889 5889 5888 5887 5886 5886 5885 5884 5883 5881 5881 5880 5880 5880 5879 5879 5878 5878 5878 5877 5876 5876 5875 5874 5873 5872 5872 5871 5869 5868 5867 5865 5865 5863 5862 5861 5860 5858 5857 5856 5855 5855 5854 5853 5852 5852 5851 5851 5850 5849 5849 5848 5848 5847 5846 5846 5846 5845 5845 5845 5845 5844 5844 5844 5844 5844 5844 5844 5843 5843 5843 5843 5842 5842 5841 5841 5840 5839 5839 5839 5838
5892 5892 5891 5890 5889 5888 5888 5887 5886 5885 5884 5883 5882 5881 5880 5880 5879 5879 5879 5879 5878 5878 5877 5877 5876 5875 5875 5874 5873 5872 5872 5871 5869 5868 5867 5865 5865 5863 5862 5861 5860 5859 5858 5857 5856 5855 5854 5853 5852 5852 5851 5851 5850 5849 5849 5848 5848 5847 5847 5846 5846 5846 5845 5845 5845 5844 5844 5844 5844 5844 5843 5843 5843 5843 5843 5842 5842 5842 5841 5840 5840 5840 5839 5839 5838
5891 5891 5890 5889 5889 5888 5887 5886 5885 5884 5883 5882 5881 5880 5879 5879 5879 5879 5878 5878 5878 5878 5877 5877 5876 5875 5874 5874 5873 5872 5871 5870 5869 5868 5867 5866 5865 5864 5862 5861 5860 5859 5858 5857 5856 5855 5854 5853 5853 5852 5851 5850 5850 5849 5849 5848 5847 5847 5847 5846 5846 5846 5845 5845 5845 5844 5844 5844 5844 5843 5843 5843 5842 5842 5842 5842 5841 5841 5841 5840 5840 5840 5839 5839 5838
5890 5890 5889 5889 5888 5888 5887 5885 5884 5883 5882 5881 5880 5879 5879 5878 5878 5878 5878 5878 5878 5877 5877 5876 5875 5875 5874 5873 5873 5872 5871 5870 5869 5868 5867 5866 5865 5864 5862 5861 5860 5859 5858 5857 5856 5855 5854 5853 5853 5852 5851 5850 5849 5849 5848 5848 5847 5847 5847 5846 5846 5846 5846 5845 5845 5844 5844 5844 5843 5843 5842 5842 5842 5841 5841 5841 5841 5840 5840 5840 5840 5839 5839 5839 5838
5889 5889 5889 5888 5887 5887 5886 5884 5883 5882 5881 5881 5880 5879 5878 5877 5877 5877 5877 5877 5877 5877 5876 5875 5875 5874 5874 5873 5873 5872 5871 5870 5869 5868 5867 5865 5864 5864 5862 5861 5860 5859 5858 5857 5856 5855 5854 5853 5852 5851 5851 5850 5849 5849 5848 5847 5847 5847 5846 5846 5846 5846 5846 5845 5845 5844 5844 5843 5843 5843 5842 5842 5841 5841 5841 5840 5840 5840 5840 5839 5839 5839 5839 5839 5838
5888 5888 5888 5887 5886 5886 5884 5883 5882 5881 5881 5880 5879 5878 5877 5877 5877 5876 5877 5877 5876 5876 5875 5875 5874 5874 5873 5873 5872 5871 5870 5869 5868 5867 5867 5865 5864 5863 5862 5861 5860 5859 5858 5856 5855 5855 5854 5853 5852 5851 5851 5850 5849 5849 5848 5847 5847 5847 5846 5846 5846 5845 5845 5845 5844 5844 5844 5843 5843 5842 5842 5841 5841 5841 5840 5840 5840 5840 5839 5839 5839 5839 5839 5838 5838
5886 5886 5886 5886 5885 5884 5883 5882 5881 5880 5880 5879 5878 5877 5877 5876 5876 5876 5876 5876 5875 5875 5875 5874 5874 5873 5873 5872 5872 5871 5870 5869 5868 5867 5867 5865 5864 5863 5862 5861 5860 5859 5858 5856 5855 5854 5854 5853 5852 5851 5850 5850 5849 5849 5848 5848 5847 5846 5846 5845 5845 5845 5845 5844 5844 5844 5843 5843 5842 5842 5842 5841 5841 5840 5840 5840 5840 5839 5839 5839 5839 5839 5838 5838 5838
5885 5885 5885 5885 5884 5883 5882 5881 5880 5879 5879 5878 5877 5877 5876 5876 5876 5875 5875 5875 5875 5874 5874 5874 5873 5873 5872 5872 5871 5870 5869 5868 5867 5867 5866 5865 5864 5863 5862 5861 5860 5859 5858 5856 5855 5854 5853 5853 5852 5851 5850 5849 5849 5849 5848 5847 5847 5846 5846 5845 5845 5844 5844 5844 5843 5843 5843 5842 5842 5842 5841 5841 5840 5840 5840 5839 5839 5839 5839 5839 5839 5839 5838 5838 5838
5884 5884 5884 5883 5883 5882 5881 5880 5879 5878 5878 5877 5877 5876 5876 5875 5875 5874 5874 5874 5874 5874 5873 5873 5872 5872 5871 5871 5870 5869 5868 5867 5867 5866 5866 5865 5864 5863 5862 5861 5860 5859 5858 5857 5855 5854 5853 5852 5852 5851 5850 5849 5848 5848 5848 5847 5847 5846 5846 5845 5844 5844 5843 5843 5843 5842 5842 5841 5841 5841 5841 5840 5840 5839 5839 5839 5839 5838 5838 5838 5838 5838 5838 5838 5837
5882 5882 5882 5882 5881 5880 5879 5879 5878 5877 5877 5876 5876 5876 5875 5875 5874 5873 5873 5873 5873 5873 5872 5872 5871 5871 5870 5869 5869 5868 5867 5867 5866 5866 5865 5864 5863 5863 5862 5861 5860 5859 5858 5857 5855 5854 5853 5852 5852 5851 5850 5849 5848 5848 5847 5847 5846 5846 5845 5845 5844 5844 5843 5843 5842 5842 5841 5841 5840 5840 5840 5839 5839 5839 5838 5838 5838 5838 5838 5838 5838 5838 5837 5837 5837
5880 5881 5880 5880 5879 5879 5878 5877 5877 5877 5876 5876 5876 5875 5874 5873 5873 5872 5872 5871 5871 5871 5871 5871 5870 5870 5869 5868 5868 5867 5867 5866 5865 5865 5865 5864 5863 5862 5861 5860 5859 5858 5857 5856 5855 5854 5853 5852 5851 5851 5850 5849 5848 5848 5847 5847 5846 5845 5845 5845 5844 5844 5843 5842 5842 5841 5841 5840 5839 5839 5839 5839 5838 5838 5837 5837 5837 5837 5836 5836 5836 5836 5836 5836 5836
5879 5879 5879 5878 5878 5877 5876 5876 5876 5876 5875 5875 5874 5874 5873 5872 5871 5871 5870 5870 5870 5870 5870 5870 5869 5868 5868 5867 5867 5866 5866 5865 5865 5864 5864 5864 5863 5862 5861 5860 5859 5858 5857 5856 5855 5854 5853 5852 5851 5850 5849 5849 5848 5847 5847 5846 5846 5845 5845 5844 5844 5843 5843 5842 5841 5841 5840 5839 5839 5838 5838 5838 5837 5837 5837 5836 5836 5836 5836 5835 5836 5835 5835 5835 5835
5877 5877 5877 5876 5876 5875 5875 5875 5875 5874 5874 5874 5873 5872 5872 5871 5870 5870 5869 5869 5869 5869 5869 5868 5868 5867 5867 5866 5866 5865 5865 5864 5864 5864 5863 5863 5862 5862 5861 5860 5859 5858 5857 5856 5855 5854 5853 5852 5851 5850 5849 5848 5847 5847 5846 5846 5845 5845 5844 5844 5843 5843 5842 5841 5841 5840 5840 5839 5838 5838 5837 5837 5837 5836 5836 5836 5835 5835 5835 5835 5835 5835 5835 5834 5834
5875 5875 5875 5875 5874 5874 5873 5873 5873 5873 5873 5872 5872 5871 5870 5870 5869 5869 5868 5868 5868 5868 5868 5867 5866 5866 5865 5865 5865 5864 5864 5864 5863 5863 5863 5862 5862 5861 5860 5859 5858 5857 5856 5855 5854 5853 5852 5851 5851 5850 5849 5848 5847 5846 5846 5845 5845 5844 5844 5843 5842 5842 5841 5841 5840 5840 5839 5839 5838 5837 5837 5836 5836 5836 5836 5835 5835 5834 5834 5834 5834 5834 5834 5833 5833
5873 5873 5873 5873 5872 5872 5872 5872 5872 5872 5871 5871 5870 5870 5869 5869 5868 5868 5867 5867 5867 5867 5866 5866 5865 5865 5864 5864 5864 5863 5863 5863 5862 5862 5862 5861 5861 5860 5859 5858 5858 5857 5856 5855 5854 5853 5852 5851 5850 5849 5849 5848 5847 5846 5845 5845 5844 5844 5843 5842 5842 5841 5840 5840 5839 5839 5838 5838 5837 5837 5836 5836 5835 5835 5835 5834 5834 5834 5834 5833 5833 5833 5833 5833 5832
5871 5871 5871 5871 5871 5870 5870 5870 5870 5870 5870 5870 5869 5869 5868 5868 5867 5867 5866 5866 5866 5866 5865 5865 5864 5863 5863 5863 5863 5862 5862 5862 5861 5861 5861 5860 5860 5859 5859 5858 5857 5857 5856 5855 5854 5853 5852 5851 5849 5849 5848 5848 5847 5846 5845 5844 5843 5843 5842 5841 5841 5840 5839 5839 5838 5838 5838 5837 5836 5836 5836 5835 5835 5834 5834 5833 5833 5833 5833 5833 5833 5832 5832 5832 5832
5869 5869 5869 5869 5869 5869 5869 5869 5869 5869 5869 5868 5868 5868 5867 5867 5866 5866 5865 5865 5865 5864 5864 5863 5863 5862 5862 5862 5862 5861 5861 5861 5860 5860 5860 5859 5859 5858 5858 5857 5857 5856 5856 5855 5853 5852 5851 5850 5849 5848 5847 5847 5847 5846 5845 5844 5842 5842 5841 5841 5840 5839 5838 5838 5837 5837 5837 5836 5836 5835 5835 5834 5834 5833 5833 5833 5832 5832 5832 5832 5832 5831 5831 5831 5831
5867 5868 5868 5867 5867 5867 5867 5867 5868 5868 5868 5867 5867 5867 5866 5866 5865 5865 5864 5864 5864 5863 5863 5862 5862 5862 5862 5861 5861 5861 5860 5860 5859 5859 5859 5858 5858 5857 5857 5857 5856 5856 5855 5854 5853 5852 5851 5850 5849 5848 5847 5846 5846 5845 5845 5844 5842 5841 5840 5840 5839 5838 5837 5836 5836 5835 5835 5835 5835 5834 5834 5833 5833 5833 5832 5832 5832 5831 5831 5831 5831 5831 5831 5830 5830
5866 5866 5866 5866 5865 5865 5866 5866 5867 5866 5866 5866 5866 5865 5865 5864 5864 5864 5863 5863 5862 5862 5862 5861 5861 5861 5861 5860 5860 5860 5860 5859 5858 5857 5857 5857 5857 5856 5856 5856 5856 5855 5855 5854 5853 5852 5851 5850 5849 5847 5846 5845 5845 5844 5844 5843 5842 5840 5839 5838 5838 5837 5836 5835 5834 5834 5834 5834 5833 5833 5832 5832 5832 5832 5831 5831 5831 5830 5830 5830 5830 5829 5829 5829 5829
5864 5864 5864 5864 5864 5864 5864 5865 5865 5865 5865 5865 5865 5864 5864 5863 5863 5863 5862 5862 5861 5861 5861 5861 5860 5860 5860 5860 5859 5859 5858 5858 5857 5856 5856 5855 5855 5855 5855 5855 5855 5854 5854 5853 5853 5852 5851 5850 5849 5847 5846 5845 5844 5843 5843 5842 5841 5840 5838 5837 5836 5836 5835 5834 5833 5832 5832 5832 5832 5831 5831 5831 5831 5831 5830 5830 5830 5829 5829 5829 5829 5828 5828 5828 5828
5862 5862 5862 5862 5863 5863 5863 5863 5864 5864 5864 5864 5863 5863 5863 5862 5862 5862 5861 5861 5861 5861 5860 5860 5860 5859 5859 5859 5858 5858 5857 5856 5856 5856 5855 5854 5854 5854 5854 5854 5853 5853 5853 5853 5852 5851 5851 5850 5849 5847 5846 5844 5843 5842 5841 5841 5840 5839 5838 5836 5835 5834 5834 5833 5832 5831 5831 5830 5830 5830 5830 5829 5829 5829 5829 5829 5829 5828 5828 5828 5828 5827 5827 5827 5827
5860 5860 5861 5861 5861 5861 5861 5862 5862 5862 5863 5862 5862 5862 5862 5862 5861 5861 5860 5860 5860 5860 5859 5859 5859 5859 5858 5858 5857 5857 5856 5855 5855 5854 5854 5853 5853 5852 5852 5852 5852 5852 5852 5852 5851 5851 5850 5849 5848 5847 5845 5844 5842 5841 5840 5839 5839 5838 5837 5836 5834 5833 5832 5832 5831 5830 5830 5829 5829 5829 5829 5828 5828 5828 5828 5828 5828 5827 5827 5827 5826 5826 5826 5826 5826
5858 5858 5859 5859 5859 5860 5860 5860 5861 5861 5861 5861 5861 5861 5861 5861 5860 5860 5859 5859 5859 5859 5858 5858 5858 5858 5857 5857 5856 5856 5855 5854 5854 5853 5853 5853 5852 5851 5851 5851 5851 5851 5851 5850 5850 5850 5849 5848 5847 5846 5845 5844 5842 5840 5838 5837 5837 5836 5836 5835 5833 5832 5831 5830 5830 5829 5828 5828 5827 5827 5827 5827 5827 5827 5827 5827 5827 5826 5826 5825 5825 5825 5825 5825 5825
5856 5857 5857 5857 5858 5858 5859 5859 5859 5860 5860 5860 5860 5860 5860 5860 5859 5859 5859 5859 5858 5858 5857 5857 5857 5857 5856 5856 5855 5855 5854 5854 5853 5853 5852 5852 5851 5851 5850 5850 5850 5849 5849 5849 5849 5848 5848 5847 5846 5846 5845 5843 5841 5840 5838 5836 5835 5835 5834 5834 5833 5831 5829 5829 5828 5828 5827 5826 5826 5826 5826 5826 5826 5826 5825 5825 5825 5825 5825 5824 5824 5824 5824 5824 5823
5854 5855 5855 5856 5856 5857 5857 5858 5858 5858 5859 5859 5859 5859 5859 5859 5858 5858 5858 5858 5857 5857 5857 5856 5856 5855 5855 5855 5855 5854 5854 5853 5853 5852 5851 5851 5850 5850 5849 5849 5848 5848 5847 5847 5847 5847 5846 5846 5845 5845 5844 5842 5841 5839 5838 5836 5834 5833 5833 5832 5832 5831 5829 5827 5826 5826 5826 5825 5824 5824 5824 5824 5824 5824 5824 5824 5823 5823 5823 5823 5822 5822 5822 5822 5822
5852 5853 5854 5854 5855 5855 5856 5856 5857 5857 5857 5858 5858 5858 5858 5857 5857 5857 5857 5857 5856 5856 5856 5855 5855 5854 5854 5854 5854 5853 5853 5853 5852 5851 5851 5850 5850 5849 5848 5848 5847 5847 5846 5845 5845 5845 5845 5844 5844 5843 5842 5841 5840 5839 5837 5835 5834 5832 5831 5831 5830 5830 5828 5826 5825 5824 5824 5824 5823 5823 5823 5822 5822 5822 5822 5822 5822 5821 5821 5821 5821 5821 5820 5820 5820
5851 5851 5852 5853 5853 5854 5854 5855 5855 5856 5856 5856 5856 5856 5856 5856 5856 5856 5856 5856 5856 5855 5855 5854 5854 5854 5853 5853 5853 5852 5852 5852 5851 5851 5850 5850 5849 5848 5847 5847 5846 5845 5845 5844 5844 5843 5843 5843 5842 5842 5841 5840 5839 5838 5837 5835 5833 5831 5830 5829 5829 5828 5827 5826 5824 5823 5823 5822 5822 5821 5821 5821 5820 5821 5821 5820 5820 5820 5819 5819 5819 5819 5819 5819 5819
5849 5850 5850 5851 5852 5852 5853 5853 5854 5854 5855 5855 5855 5855 5855 5855 5855 5855 5855 5855 5855 5854 5854 5853 5853 5853 5852 5852 5852 5851 5851 5851 5850 5850 5850 5849 5849 5848 5847 5846 5845 5844 5843 5843 5842 5842 5842 5841 5841 5840 5840 5839 5838 5837 5836 5834 5833 5831 5829 5828 5827 5827 5826 5825 5823 5821 5821 5821 5820 5820 5820 5819 5819 5819 5819 5819 5819 5818 5818 5818 5818 5817 5817 5817 5817
5847 5848 5848 5849 5850 5851 5851 5852 5852 5853 5853 5853 5854 5853 5853 5853 5853 5853 5853 5853 5853 5853 5853 5852 5852 5852 5851 5851 5851 5850 5850 5850 5850 5849 5849 5849 5848 5847 5846 5845 5844 5843 5843 5842 5841 5841 5840 5840 5839 5838 5838 5837 5836 5835 5834 5833 5832 5830 5828 5827 5826 5825 5824 5824 5822 5820 5819 5819 5818 5818 5818 5818 5817 5817 5817 5817 5817 5817 5817 5816 5816 5816 5816 5816 5816
5845 5846 5847 5848 5848 5849 5850 5850 5851 5851 5851 5852 5852 5852 5852 5852 5852 5852 5852 5852 5852 5852 5852 5851 5851 5851 5850 5850 5850 5850 5849 5849 5849 5848 5848 5847 5847 5846 5845 5844 5843 5843 5842 5841 5840 5840 5839 5838 5838 5837 5836 5836 5835 5834 5833 5832 5831 5829 5828 5826 5825 5824 5823 5822 5821 5820 5818 5817 5816 5816 5816 5816 5816 5815 5815 5815 5815 5815 5815 5815 5815 5814 5814 5814 5814
5843 5844 5845 5846 5847 5847 5848 5848 5849 5849 5849 5850 5850 5850 5850 5850 5851 5851 5851 5851 5851 5851 5851 5850 5850 5850 5849 5849 5849 5849 5848 5848 5848 5847 5847 5846 5845 5845 5844 5843 5843 5842 5841 5840 5839 5838 5837 5837 5836 5835 5835 5834 5833 5833 5831 5830 5829 5828 5827 5825 5824 5823 5822 5821 5820 5819 5817 5816 5815 5814 5814 5813 5814 5814 5813 5813 5813 5813 5813 5813 5813 5813 5813 5812 5812
5841 5842 5843 5844 5845 5845 5846 5846 5847 5847 5848 5848 5848 5849 5849 5849 5849 5849 5850 5850 5850 5850 5850 5849 5849 5849 5848 5848 5848 5847 5847 5847 5846 5846 5845 5845 5844 5844 5843 5843 5842 5841 5840 5839 5838 5837 5836 5835 5834 5834 5833 5832 5832 5831 5830 5829 5828 5827 5826 5824 5823 5822 5821 5820 5818 5817 5816 5815 5813 5813 5812 5812 5811 5811 5812 5812 5811 5811 5812 5812 5811 5812 5811 5811 5811
5838 5839 5840 5841 5842 5843 5844 5844 5845 5845 5846 5846 5847 5847 5847 5847 5848 5848 5848 5848 5848 5848 5848 5848 5848 5848 5847 5847 5846 5846 5846 5845 5845 5844 5844 5844 5843 5843 5842 5842 5841 5840 5839 5838 5837 5836 5835 5834 5833 5832 5832 5831 5830 5829 5829 5828 5827 5825 5824 5823 5822 5821 5819 5818 5817 5816 5815 5814 5812 5811 5810 5810 5810 5810 5810 5810 5810 5810 5810 5810 5810 5810 5810 5810 5809
5835 5836 5838 5839 5840 5841 5842 5842 5843 5844 5844 5844 5845 5845 5846 5846 5846 5847 5847 5847 5847 5847 5847 5847 5846 5846 5846 5846 5845 5845 5844 5844 5844 5843 5843 5842 5841 5841 5841 5840 5840 5839 5838 5837 5836 5835 5834 5833 5832 5831 5830 5829 5828 5828 5827 5826 5825 5823 5822 5822 5820 5819 5818 5817 5816 5815 5814 5813 5811 5810 5809 5809 5809 5808 5808 5808 5808 5808 5808 5808 5808 5808 5808 5808 5808
5832 5834 5835 5837 5838 5839 5840 5841 5841 5842 5842 5843 5843 5844 5844 5844 5845 5845 5845 5845 5845 5845 5845 5845 5845 5845 5844 5844 5843 5843 5843 5843 5842 5842 5841 5840 5840 5839 5839 5839 5838 5837 5836 5835 5834 5833 5832 5831 5831 5830 5829 5828 5827 5826 5825 5824 5823 5821 5820 5820 5819 5818 5816 5815 5814 5813 5812 5811 5810 5808 5807 5807 5807 5807 5806 5806 5806 5807 5807 5806 5806 5806 5806 5806 5806
5831 5833 5834 5836 5837 5838 5839 5839 5839 5840 5840 5841 5841 5842 5842 5843 5843 5843 5843 5843 5844 5844 5844 5844 5844 5843 5843 5842 5842 5842 5842 5841 5841 5840 5839 5839 5838 5838 5837 5837 5836 5836 5835 5834 5833 5832 5831 5830 5829 5829 5828 5827 5826 5825 5824 5822 5821 5820 5818 5818 5817 5816 5815 5814 5812 5811 5810 5809 5808 5807 5805 5805 5805 5804 5804 5804 5804 5804 5804 5804 5804 5804 5804 5804 5804
5830 5832 5833 5834 5835 5836 5837 5837 5838 5838 5839 5839 5840 5840 5841 5841 5841 5841 5841 5842 5842 5842 5842 5842 5842 5842 5841 5841 5841 5840 5840 5840 5839 5838 5838 5837 5836 5836 5835 5835 5834 5834 5833 5832 5832 5831 5830 5829 5828 5827 5827 5826 5825 5824 5822 5821 5820 5818 5817 5816 5815 5814 5813 5812 5811 5810 5808 5807 5806 5805 5804 5803 5803 5802 5801 5801 5802 5801 5801 5801 5801 5801 5801 5801 5801
5830 5831 5831 5832 5834 5834 5835 5835 5836 5836 5837 5838 5838 5838 5839 5839 5839 5840 5840 5840 5840 5840 5840 5840 5840 5840 5840 5839 5839 5839 5838 5838 5837 5836 5836 5835 5834 5834 5833 5833 5832 5832 5831 5831 5830 5829 5828 5827 5827 5826 5825 5824 5823 5822 5821 5820 5818 5817 5815 5815 5814 5813 5812 5810 5809 5808 5807 5806 5805 5804 5803 5801 5800 5800 5799 5799 5799 5799 5798 5798 5799 5799 5799 5799 5799
5828 5829 5830 5831 5832 5832 5833 5834 5834 5835 5835 5836 5836 5836 5836 5837 5837 5838 5838 5839 5838 5838 5838 5838 5838 5838 5838 5838 5837 5837 5836 5836 5835 5835 5834 5833 5833 5832 5831 5831 5830 5830 5829 5829 5828 5827 5827 5826 5825 5824 5823 5822 5821 5820 5819 5818 5817 5815 5814 5813 5812 5811 5810 5809 5808 5807 5805 5804 5803 5802 5801 5800 5799 5798 5797 5797 5796 5796 5796 5795 5795 5795 5795 5795 5796
5824 5826 5828 5829 5830 5831 5831 5832 5832 5833 5833 5834 5834 5834 5834 5835 5835 5836 5836 5836 5837 5837 5836 5836 5836 5836 5836 5836 5835 5835 5834 5834 5833 5833 5832 5832 5831 5830 5830 5829 5829 5828 5828 5827 5827 5826 5825 5824 5823 5822 5821 5820 5819 5818 5817 5816 5815 5814 5813 5811 5810 5809 5808 5808 5807 5805 5804 5802 5801 5800 5799 5799 5798 5796 5796 5795 5794 5793 5793 5793 5792 5792 5792 5792 5792
5821 5823 5825 5827 5828 5829 5829 5830 5830 5831 5831 5831 5831 5832 5832 5832 5833 5833 5834 5834 5834 5835 5834 5834 5834 5834 5834 5834 5833 5833 5833 5832 5832 5831 5831 5830 5829 5829 5828 5828 5827 5826 5826 5825 5825 5824 5823 5823 5822 5821 5820 5818 5817 5816 5815 5814 5813 5812 5811 5810 5809 5808 5806 5805 5804 5803 5802 5801 5799 5798 5798 5797 5796 5795 5794 5793 5792 5791 5791 5790 5790 5789 5789 5788 5789
5820 5821 5823 5824 5825 5826 5827 5828 5828 5828 5828 5829 5829 5829 5829 5829 5830 5831 5831 5832 5832 5833 5833 5832 5832 5832 5832 5831 5831 5831 5831 5831 5830 5830 5829 5829 5828 5828 5827 5826 5825 5825 5824 5823 5823 5822 5822 5821 5820 5819 5818 5817 5815 5814 5813 5812 5811 5810 5809 5809 5808 5807 5805 5804 5802 5801 5799 5798 5797 5796 5795 5795 5794 5793 5792 5790 5789 5789 5788 5788 5787 5786 5786 5786 5785
5818 5819 5820 5822 5823 5824 5825 5825 5825 5826 5826 5826 5826 5826 5826 5827 5828 5829 5829 5830 5830 5831 5831 5830 5830 5830 5829 5829 5829 5829 5829 5829 5829 5828 5828 5827 5827 5826 5825 5824 5824 5823 5822 5821 5821 5820 5820 5820 5819 5818 5816 5815 5814 5813 5811 5810 5809 5808 5808 5807 5806 5806 5804 5803 5801 5800 5798 5796 5795 5794 5793 5792 5791 5790 5789 5788 5786 5786 5786 5785 5785 5784 5783 5783 5782
5815 5817 5818 5819 5820 5821 5821 5822 5822 5823 5824 5823 5823 5824 5824 5825 5827 5827 5828 5828 5828 5828 5828 5828 5828 5827 5827 5828 5828 5828 5828 5828 5827 5827 5826 5826 5825 5824 5824 5823 5822 5821 5820 5819 5819 5818 5818 5817 5817 5816 5815 5814 5813 5811 5810 5808 5807 5806 5806 5805 5804 5804 5803 5802 5800 5799 5797 5795 5793 5792 5791 5790 5788 5787 5786 5785 5784 5783 5782 5782 5781 5781 5781 5780 5779
5814 5815 5816 5817 5818 5819 5819 5819 5820 5820 5821 5821 5822 5823 5823 5824 5825 5825 5826 5826 5826 5826 5826 5826 5826 5826 5826 5826 5826 5826 5826 5826 5825 5825 5824 5824 5823 5822 5821 5821 5820 5819 5818 5818 5817 5816 5816 5815 5814 5814 5812 5812 5811 5810 5808 5807 5806 5805 5804 5803 5802 5801 5801 5800 5799 5797 5796 5795 5793 5790 5789 5788 5787 5785 5783 5782 5781 5780 5779 5778 5778 5777 5777 5777 5776
5812 5813 5814 5815 5816 5816 5817 5818 5818 5818 5819 5819 5820 5821 5822 5823 5824 5824 5824 5824 5824 5824 5824 5824 5824 5824 5825 5825 5825 5824 5824 5823 5823 5822 5822 5821 5821 5820 5819 5819 5818 5817 5816 5816 5815 5814 5814 5813 5812 5811 5810 5809 5808 5807 5806 5805 5804 5803 5802 5801 5800 5799 5799 5798 5796 5795 5794 5793 5792 5790 5787 5785 5784 5782 5781 5780 5778 5777 5776 5775 5774 5774 5774 5773 5773
5810 5810 5811 5812 5813 5814 5814 5815 5816 5816 5817 5818 5818 5820 5821 5821 5822 5822 5822 5822 5822 5822 5822 5823 5823 5823 5823 5823 5823 5822 5822 5821 5821 5820 5820 5819 5818 5818 5817 5816 5816 5815 5814 5813 5813 5812 5811 5810 5809 5808 5807 5807 5806 5805 5804 5803 5802 5801 5800 5799 5798 5797 5796 5795 5794 5793 5792 5791 5790 5788 5786 5784 5782 5780 5778 5778 5777 5774 5772 5771 5771 5770 5770 5769 5768
5806 5807 5809 5810 5811 5812 5812 5813 5814 5814 5815 5816 5817 5818 5819 5819 5820 5820 5820 5820 5820 5821 5821 5821 5821 5821 5821 5821 5821 5820 5820 5819 5819 5818 5818 5817 5816 5815 5815 5814 5813 5812 5812 5811 5810 5809 5809 5808 5807 5806 5805 5804 5803 5802 5801 5800 5800 5799 5798 5797 5796 5795 5794 5793 5791 5790 5789 5788 5787 5786 5784 5782 5781 5778 5775 5775 5774 5772 5769 5768 5767 5766 5766 5765 5765